STARLINK-11393, 62016

Orbit data source: Space-Track

STARLINK-11393, 62016 is a payload satellite owned by SpaceX/Seattle (US) in LEO that was launched on Mon, 18 Nov 2024 UTC via an FALCON 9 launch vehicle from the Air Force Western Test Range (AFWTR). Payload-class satellites include a variety of spacecraft equipped with specific instruments for various scientific and technological missions. These include communications satellites like Starlink; space stations such as the ISS; scientific satellites like the Hubble; Earth observation satellites from companies like Planet Labs, Umbra, and HawkEye 360; GPS; miniature CubeSats for education and research; and military/defense satellites.

Loading next visibility...
Identifier
62016, 2024-213J
Orbit
LEO
Country
Flag of USUS
Related business
Manufacturer
SpaceX/Seattle
Mission
Operational Commercial Communications
Bus & Motor
STARLINK V2M, Unknown motor
Mass
730 kg wet, ~700 kg dry
Launch date (UTC)
2024-11-18 (9 months ago)
Launch vehicle
FALCON 9
Launch site
Air Force Western Test Range (AFWTR)
Object type
Payload
Rocket body
Debris
Shape & HBR
Box + 2 Pan, 14.5 m
Radar Cross Section
36.964 m², Large (>1 m²)

Expand to show TLE details & history
Last TLE update: 11 hours ago

TLE from 11 hours ago
0 STARLINK-11393
1 62016U 24213J   25242.07428421  .00380925  00000-0  29832-2 0  9993
2 62016  53.1569 265.5732 0002094 124.2222 235.8994 15.69901957 44826
Epoch: 2025-08-30T01:46Z
TLE epoch observation values (Epoch: 2025-08-30T01:46:58.155Z)
Latitude
-0.00008°
Longitude
-99.68298°
Altitude
360.883 km
Speed
7.694 km/s
True Right ascension
17h 42m 17s
True Declination
0° 00' 00"
Sunlit
Object was in daylight at epoch
Visualization orbit readout
Latitude
Unknown
Longitude
Unknown
Altitude
Unknown
Speed
Unknown
Apparent Right ascension
Unknown
Apparent Declination
Unknown
Sunlit
N/A
Visualization observer readout
Local Sidereal Time
04:16:43
Azimuth
Unknown
Elevation
Unknown
Doppler factor
Unknown
Orbital elements
Apogee altitude
360.85 km
Perigee altitude
358.028 km
Semi-major axis
6,737.576 km
Eccentricity
0.00021
Inclination
53.1569°
RAAN
265.5732°
Arg. of periapsis
124.2222°
True anomaly
235.87953°
Mean anomaly
235.8994°
Eccentric anomaly
235.88947°
Mean motion
3.92453 °/min
Orbital period
91.73 mins
BSTAR
0.0029832
Loading maneuver chart data...
Computing Atmospheric mass density...
Loading historical data...
Loading historical data...
Loading historical data...
Loading historical data...
Loading historical data...
Loading historical data...
Loading historical data...

Documentation

Showing up to 5 results
|